ROMMA est une association bénévole à but non lucratif. Votre soutien est indispensable : ADHERER à ROMMA ou FAIRE un DON

Miribel-les-Echelles - (38, Isère)

Massif de la Chartreuse (760 m)   Longitude: 05° 41' 54'' E   Latitude: 45° 26' 40'' N Station partenaire n°22
 

Détail journalier du     <<     >>

Température Precipitation Humidité Pression Vent Dir Rafale Dir. rafale Ensol.
Heure (°C) (mm) (%) (hPa) (km/h) (km/h) (min)
01:00 5.709210182O6O0
02:00 5.309210181NNE3NNE0
03:00 6.009110181NNE3NNE0
04:00 4.809110182NNE5O0
05:00 5.209210181O5O0
06:00 5.109010181NNO3ONO0
07:00 4.609110181N10E0
08:00 4.3092101803N0
09:00 6.3094101905N30
10:00 7.809210192E5ESE60
11:00 8.809210202ESE6ESE60
12:00 9.309410192E6ESE30
13:00 11.109010193ESE8SSE60
14:00 12.308010184E13ESE60
15:00 13.306910182ESE11SE60
16:00 13.906710174ESE15SSO60
17:00 14.006910172ESE8S60
18:00 12.407310162SO11OSO30
19:00 10.907910171ENE6OSO0
20:00 10.608010172ESE18SSE0
21:00 9.208510172ENE16SSE0
22:00 8.6088101703ENE0
23:00 8.2087101806O0
minuit 8.6088101805O0

Graphique du 16-10-2019

 

Serveur OMMA